Tracking 29892 objects as of 21-Nov-2024
HD Live streaming from Space Station
objects crossing your sky now

STARLINK-1369

Track STARLINK-1369 now!
10-day predictions
STARLINK-1369 is classified as:


NORAD ID: 45541
Int'l Code: 2020-025L
Perigee: 553.4 km
Apogee: 555.4 km
Inclination: 53.1 °
Period: 95.6 minutes
Semi major axis: 6925 km
RCS: Unknown
Launch date: April 22, 2020
Source: United States (US)
Launch site: AIR FORCE EASTERN TEST RANGE (AFETR)
Your satellite tracking list
Your tracking list is empty




NASA's NSSDC Master Catalog

Two Line Element Set (TLE):
1 45541U 20025L   24324.63162317 -.00000684  00000-0 -27058-4 0  9998
2 45541  53.0536  79.2291 0001441  81.3650 278.7502 15.06390544253486
Source of the keplerian elements: AFSPC